Regional Weather Roundup
Issued by NWS Upton, NY

Current Version | Previous Version | Text Only | Print | Product List | Glossary On
Versions: 1 2 3 4 5 6 7 8 9 10 11 12 13 14 15 16 17 18 19 20 21 22 23 24 25 26 27 28 29 30 31 32 33 34 35 36 37 38 39 40 41 42 43 44 45 46 47 48 49 50
000
ASUS41 KOKX 202205
RWROKX

REGIONAL WEATHER ROUNDUP
NATIONAL WEATHER SERVICE NEW YORK NY
600 PM EDT SAT SEP 20 2014

NOTE: "FAIR" INDICATES FEW OR NO CLOUDS BELOW 12,000 FEET WITH NO
SIGNIFICANT WEATHER AND/OR OBSTRUCTIONS TO VISIBILITY.

NYZ071-072-176-178-NJZ106-104-202300-
NEW YORK CITY METRO AREA


CITY           SKY/WX    TMP DP  RH WIND       PRES   REMARKS
CENTRAL PARK   CLEAR     71  54  54 MISG      30.16F
LAGUARDIA APRT MOCLDY    72  56  57 S12       30.13F
KENNEDY INTL   MOCLDY    73  60  63 S9        30.15F
NEWARK/LIBERTY MOSUNNY   73  58  59 S9G17     30.13F
BRNX BOT. GARD   N/A     72  54  53 SE9       30.16S
TETERBORO      CLEAR     73  57  57 S12G23    30.12F
$$

NYZ177-179-078>081-202300-
LONG ISLAND NEW YORK

CITY           SKY/WX    TMP DP  RH WIND       PRES   REMARKS
FARMINGDALE    MOCLDY    71  60  68 S12       30.16F
ISLIP          MOCLDY    71  59  65 S6        30.15F
SHIRLEY        PTCLDY    70  59  68 S7        30.17F
WESTHAMPTON    CLEAR     70  58  65 S5        30.19F
MONTAUK POINT    N/A     70  59  68 S3        30.20F
$$

NYZ052-065-067-202300-
HUDSON VALLEY

CITY           SKY/WX    TMP DP  RH WIND       PRES   REMARKS
WHITE PLAINS   PTCLDY    70  57  63 S10G18    30.14F
NEWBURGH       CLEAR     72  61  68 S14       30.12F
MONTGOMERY     CLEAR     72  58  61 S15G22    30.09F
POUGHKEEPSIE   CLEAR     73  57  57 S8G17     30.09F
ALBANY         MOCLDY    72  55  55 S14G25    30.06S
$$

NJZ001-105-106-008-010-013-015-019>022-104-202300-
NEW JERSEY

CITY           SKY/WX    TMP DP  RH WIND       PRES   REMARKS
NEWARK/LIBERTY MOSUNNY   73  58  59 S9G17     30.13F
TETERBORO      CLEAR     73  57  57 S12G23    30.12F
CALDWELL       MOSUNNY   72  57  59 S9        30.13F
MORRISTOWN     PTSUNNY   75  59  57 S10G17    30.13F
SOMERVILLE     PTSUNNY   74  59  59 SE8       30.10F
LINDEN         FAIR      78  59  52 S10G17    30.15F
SUSSEX         MOSUNNY   75  58  55 VRB7      30.10F
ANDOVER          N/A     72  58  61 S8        30.11F
TRENTON        SUNNY     73  57  57 S12       30.12F
MILLVILLE      MOSUNNY   74  61  63 SE7       30.12F
ATLANTIC CITY  MOSUNNY   73  64  73 E10       30.13F
WRIGHTSTOWN    MOSUNNY   73  60  63 VRB6      30.11F
TOMS RIVER     CLOUDY    72  63  73 SE3       30.13F
BELMAR         PTSUNNY   72  61  68 S7        30.14F
$$

PAZ047>061-062-071-202300-
EASTERN PENNSYLVANIA

CITY           SKY/WX    TMP DP  RH WIND       PRES   REMARKS
PHILADELPHIA   MOSUNNY   76  59  55 SE10      30.12F
ALLENTOWN      SUNNY     76  56  49 S12G20    30.09F
SCRANTON       PTSUNNY   72  56  57 S9        30.08F
$$

CTZ002-004>006-009-010-012-RIZ004-006-007-MAZ004-011-015-202300-
SOUTHERN NEW ENGLAND
 IN CT

CITY           SKY/WX    TMP DP  RH WIND       PRES   REMARKS
BRADLEY INTL   PTCLDY    72  55  55 S13       30.12F
HARTFORD       CLEAR     69  55  60 S13       30.14F
DANBURY        CLEAR     68  57  68 S10G23    30.15F
WTRBRY/OXFORD  PTCLDY    68  55  64 S14G23    30.17F
BRIDGEPORT     MOCLDY    72  58  61 S14       30.15F
MERIDEN        PTCLDY    70  54  56 S15G23    30.15F
NEW HAVEN      MOCLDY    72  57  59 S12       30.16F
CHESTER        FAIR      66  55  68 S6        30.18F
GROTON         PTCLDY    68  59  73 S14       30.17F
WILLIMANTIC    CLOUDY    68  54  60 S10       30.17F

 IN RI

CITY           SKY/WX    TMP DP  RH WIND       PRES   REMARKS
PROVIDENCE     PTCLDY    68  52  56 S16       30.18F
BLOCK ISLAND   PTCLDY    70  55  60 SW7       30.20F
WESTERLY       CLEAR     70  57  63 S8        30.19F

 IN MA

CITY           SKY/WX    TMP DP  RH WIND       PRES   REMARKS
BOSTON         MOCLDY    68  53  58 SW17      30.15F
WORCESTER      CLOUDY    64  54  69 S13       30.16F
WESTFIELD      PTCLDY    70  55  59 S12G25    30.11F
PROVINCETOWN   CLEAR     64  55  72 S12       30.19S
NANTUCKET      CLEAR     65  57  75 S8        30.20F
$$

ANZ330-335-338-340-345-350-353-355-202300-
COASTAL MARINE OBSERVATIONS


STATION/POSITION TIME  SKY/WX   TEMP    WIND        PRES    VSBY  WAVE
                                AIR SEA DIR/SP/G                  HT/PER
                 (UTC)          (F)     (DEG/KT/KT) (MB)    (MI)  (FT/S)
NY HARB ENTRANCE 2200            70 71  160/  6/  8 1021.3          4/ 9
4S FIRE IS       2200               70                N/A           4/ 5
20S FIRE ISLAND  2200            70 69  160/ 12/ 14 1021.4          4/10
23SW MTP         2200                                 N/A           3/ 4
HUDSON CANYON    2200            72 72  140/ 16/ 17 1020.5          4/10
EXECUTION ROCKS  2200            72 70  190/ 14/ 19   N/A
WESTERN LI SOUND 2200            72     170/ 16/ 19   N/A           1/ 2
CENTRAL LI SOUND 2200            71 70  210/ 12/ 16   N/A           1/ 3
EASTERN LI SOUND 2100            70 68  200/ 12/ 16   N/A
ROBBINS REEF     2200            70     160/ 17/ 18 1019.1
$$


>>>>>>>>>>>>>>>>>>>>>>>>>>>> KEY <<<<<<<<<<<<<<<<<<<<<<<<<<<
>                                                          <
>     SKY/WX - SKY CONDITION/PRESENT WEATHER               <
>     TMP    - TEMPERATURE IN FAHRENHEIT                   <
>     DP     - DEWPOINT IN FAHRENHEIT                      <
>     RH     - RELATIVE HUMIDITY IN PERCENT                <
>     WIND   - DIRECTION AND SPEED IN MPH                  <
>     PRES   - MEAN SEA LEVEL PRESSURE IN INCHES OF HG     <
>     WCI    - WIND CHILL INDEX                            <
>     VSB    - VISIBILITY IN MILES                         <
>     HX     - HEAT INDEX                                  <
>     TC     - TEMPERATURE IN CELSIUS                      <
>     VRB    - VARIABLE WIND DIRECTION                     <
>                                                          <
>>>>>>>>>>>>>>>>>>>>>>>>>>>> KEY <<<<<<<<<<<<<<<<<<<<<<<<<<<





USA.gov is the U.S. government's official web portal to all federal, state and local government web resources and services.